RWZ560 UGTB-UUBW

Flight info

Callsign RWZ560
Flight time N/A
Altitude 33000
Route KUFAN DCT MKL DCT KOTOD DCT EVZUN DCT ZIZAR DCT VAZLU DCT UZZID DCT NOKLI DCT WGD G481 OBABI T619 UMRAL P163 GOLRI L736 OLOPI OLOPI2W
Aircraft SU95/M-SDE3GILORVW/S

Departure

Time 2026-04-29 19:52
Airport Tbilisi International Airport (UGTB)

Arrival

Time N/A
Airport Zhukovsky International Airport (UUBW)
Time Latitude Longitude Altitude Speed Heading
2026-04-29 19:39 41.66699 44.96287 1524 ft 0 kts 225°
2026-04-29 19:44 41.66705 44.96295 1524 ft 4 kts 224°
2026-04-29 19:44 41.66719 44.96313 1521 ft 4 kts 221°
2026-04-29 19:45 41.66735 44.96332 1524 ft 3 kts 223°
2026-04-29 19:45 41.66754 44.96355 1524 ft 4 kts 218°
2026-04-29 19:45 41.66775 44.96355 1522 ft 4 kts 142°
2026-04-29 19:45 41.66793 44.96332 1522 ft 4 kts 135°
2026-04-29 19:46 41.66802 44.96320 1522 ft 0 kts 135°
2026-04-29 19:48 41.66791 44.96334 1522 ft 6 kts 135°
2026-04-29 19:48 41.66696 44.96424 1524 ft 19 kts 175°
2026-04-29 19:48 41.66639 44.96395 1524 ft 3 kts 181°
2026-04-29 19:49 41.66614 44.96395 1524 ft 5 kts 174°
2026-04-29 19:49 41.66556 44.96387 1524 ft 9 kts 206°
2026-04-29 19:49 41.66470 44.96355 1522 ft 17 kts 196°
2026-04-29 19:49 41.66334 44.96316 1520 ft 23 kts 183°
2026-04-29 19:50 41.66169 44.96322 1523 ft 24 kts 166°
2026-04-29 19:50 41.66081 44.96420 1522 ft 13 kts 135°
2026-04-29 19:50 41.66017 44.96507 1523 ft 13 kts 134°
2026-04-29 19:50 41.65945 44.96586 1523 ft 13 kts 155°
2026-04-29 19:51 41.65860 44.96577 1519 ft 13 kts 227°
2026-04-29 19:51 41.65843 44.96467 1522 ft 12 kts 285°
2026-04-29 19:51 41.65899 44.96386 1522 ft 18 kts 319°
2026-04-29 19:51 41.66183 44.96030 1523 ft 92 kts 317°
2026-04-29 19:52 41.66807 44.95252 1521 ft 151 kts 317°
2026-04-29 19:52 41.67655 44.94237 1904 ft 173 kts 319°
2026-04-29 19:52 41.68619 44.93108 2357 ft 191 kts 317°
2026-04-29 19:52 41.69551 44.91922 3354 ft 181 kts 316°
2026-04-29 19:53 41.70487 44.90706 3855 ft 198 kts 316°
2026-04-29 19:53 41.71540 44.89390 4251 ft 218 kts 323°
2026-04-29 19:53 41.73016 44.88632 4630 ft 243 kts 353°
2026-04-29 19:53 41.74752 44.89030 5144 ft 266 kts 22°
2026-04-29 19:54 41.77047 44.93040 6749 ft 287 kts 79°
2026-04-29 19:54 41.77062 44.95719 7583 ft 289 kts 95°
2026-04-29 19:54 41.76880 44.98403 8479 ft 289 kts 92°
2026-04-29 19:55 41.76872 45.01070 9341 ft 291 kts 86°
2026-04-29 19:55 41.77067 45.03789 10157 ft 295 kts 81°
2026-04-29 19:55 41.77407 45.06602 10525 ft 315 kts 78°
2026-04-29 19:55 41.77847 45.09584 10884 ft 333 kts 77°
2026-04-29 19:56 41.78323 45.12632 11609 ft 337 kts 77°
2026-04-29 19:56 41.78809 45.15731 12355 ft 341 kts 77°
2026-04-29 19:56 41.79295 45.18855 13086 ft 346 kts 77°
2026-04-29 19:56 41.79609 45.20899 13555 ft 349 kts 77°
2026-04-29 19:57 41.80112 45.24178 14267 ft 354 kts 77°
2026-04-29 19:57 41.80599 45.27378 14923 ft 358 kts 77°
2026-04-29 19:57 41.81101 45.30683 15601 ft 362 kts 78°
2026-04-29 19:57 41.81603 45.33996 16251 ft 367 kts 78°
2026-04-29 19:58 41.82114 45.37373 16892 ft 370 kts 78°
2026-04-29 19:58 41.82630 45.40784 17530 ft 375 kts 78°
2026-04-29 19:58 41.83148 45.44221 18171 ft 378 kts 78°
2026-04-29 19:58 41.83629 45.47417 18705 ft 382 kts 78°
2026-04-29 19:59 41.84134 45.50787 19219 ft 386 kts 78°
2026-04-29 19:59 41.84666 45.54341 19748 ft 390 kts 78°
2026-04-29 19:59 41.85202 45.57928 20285 ft 394 kts 78°
2026-04-29 19:59 41.85741 45.61549 20811 ft 398 kts 78°
2026-04-29 20:00 41.86274 45.65130 21323 ft 402 kts 78°
2026-04-29 20:00 41.86821 45.68823 21838 ft 406 kts 78°
2026-04-29 20:00 41.87374 45.72556 22350 ft 410 kts 78°
2026-04-29 20:00 41.87923 45.76276 22854 ft 414 kts 78°
2026-04-29 20:01 41.88483 45.80080 23358 ft 418 kts 78°
2026-04-29 20:01 41.89048 45.83928 23838 ft 421 kts 79°
2026-04-29 20:01 41.89615 45.87798 24272 ft 424 kts 79°
2026-04-29 20:01 41.90185 45.91693 24730 ft 427 kts 79°
2026-04-29 20:02 41.90757 45.95618 25156 ft 430 kts 79°
2026-04-29 20:02 41.91331 45.99563 25582 ft 432 kts 79°
2026-04-29 20:02 41.91908 46.03543 26007 ft 435 kts 79°
2026-04-29 20:02 41.92299 46.06244 26288 ft 437 kts 79°
2026-04-29 20:03 41.93071 46.11583 26827 ft 441 kts 80°
2026-04-29 20:03 41.93653 46.15631 27256 ft 443 kts 80°
2026-04-29 20:03 41.94236 46.19692 27603 ft 447 kts 80°
2026-04-29 20:03 41.94840 46.23803 27981 ft 450 kts 77°
2026-04-29 20:04 41.95841 46.27798 28351 ft 453 kts 65°
2026-04-29 20:04 41.97395 46.31493 28675 ft 456 kts 54°
2026-04-29 20:04 41.99381 46.34819 29004 ft 458 kts 49°
2026-04-29 20:04 42.01436 46.38114 29346 ft 460 kts 49°
2026-04-29 20:05 42.03494 46.41428 29619 ft 464 kts 50°
2026-04-29 20:05 42.05566 46.44776 29966 ft 467 kts 50°
2026-04-29 20:05 42.07647 46.48143 30279 ft 470 kts 50°
2026-04-29 20:05 42.09740 46.51535 30555 ft 472 kts 50°